Concordia, KS

1:52 PM CDT on September 21, 2017 (GMT -0500)
Blosser Municipal

Weather History for KCNK - April, 2013

Change the Weather History Date:

Friday, April 19, 2013

  Actual Average Record
Temperature  
Mean Temperature 41 °F 54 °F  
Max Temperature 54 °F 66 °F 89 °F (1955)
Min Temperature 27 °F 42 °F 27 °F (2013)
Degree Days  
Heating Degree Days 24 11  
Month to date heating degree days 373 267  
Since 1 July heating degree days 5209 5158  
Cooling Degree Days 0 1  
Month to date cooling degree days 0 4  
Year to date cooling degree days 0 5  
Moisture  
Dew Point 26 °F    
Average Humidity 60    
Maximum Humidity 85    
Minimum Humidity 35    
Precipitation  
Precipitation 0.00 in 0.08 in 2.25 in (1929)
Month to date precipitation 2.80 1.44  
Year to date precipitation 5.17 4.82  
Snow  
Snow 0.00 in 0.00 in T in (1950)
Month to date snowfall 0.2 0.5  
Year to date snowfall 18.1 13.7  
Since 1 July snowfall 26.6 20.2  
Snow Depth 0.00 in    
Sea Level Pressure  
Sea Level Pressure 30.05 in    
Wind  
Wind Speed 12 mph (NW)    
Max Wind Speed 24 mph    
Max Gust Speed 32 mph    
Visibility 10 miles    
Events      
T = Trace of Precipitation, MM = Missing Value Source: NWS Daily Summary

Daily Weather History Graph

Daily Weather History Graph

Search for Another Location

Airport or City:

Trip Planner

Search our weather history database for the weather conditions in past years. The results will help you decide how hot, cold, wet, or windy it might be!

Date:

Astronomy

Apr. 19, 2013 Rise Set
Actual Time 6:47 AM CDT 8:12 PM CDT
Civil Twilight 6:19 AM CDT 8:41 PM CDT
Nautical Twilight 5:45 AM CDT 9:14 PM CDT
Astronomical Twilight 5:09 AM CDT 9:50 PM CDT
Moon 2:00 PM CDT (4/19) 3:01 AM CDT (4/19)
Length of Visible Light 14h 22m
Length of Day
13h 25m
First Quarter, 62% of the Moon is Illuminated
Apr 19
First Quarter
Apr 25
Full
May 2
Last Quarter
May 9
New
May 17
First Quarter

Hourly Weather History & Observations

Time (CDT) Temp. Windchill Dew Point Humidity Pressure Visibility Wind Dir Wind Speed Gust Speed Precip Events Conditions
12:55 AM 30.9 °F 21.2 °F 25.0 °F 79% 30.04 in 10.0 mi West 12.7 mph - N/A   Partly Cloudy
1:55 AM 30.0 °F 20.5 °F 24.1 °F 79% 30.04 in 10.0 mi West 11.5 mph - N/A   Clear
2:55 AM 28.9 °F 19.2 °F 24.1 °F 82% 30.04 in 10.0 mi West 11.5 mph - N/A   Clear
3:55 AM 28.9 °F 18.6 °F 24.1 °F 82% 30.04 in 10.0 mi West 12.7 mph - N/A   Clear
4:55 AM 28.0 °F 17.0 °F 23.0 °F 81% 30.04 in 10.0 mi West 13.8 mph - N/A   Clear
5:55 AM 27.0 °F 16.7 °F 21.9 °F 81% 30.04 in 10.0 mi West 11.5 mph - N/A   Clear
6:55 AM 27.0 °F 16.1 °F 21.9 °F 81% 30.05 in 10.0 mi West 12.7 mph - N/A   Clear
7:55 AM 30.0 °F 20.5 °F 23.0 °F 75% 30.06 in 10.0 mi West 11.5 mph - N/A   Clear
8:55 AM 34.0 °F 25.5 °F 24.1 °F 67% 30.06 in 10.0 mi WNW 11.5 mph - N/A   Clear
9:55 AM 37.0 °F 28.9 °F 26.1 °F 65% 30.05 in 10.0 mi West 12.7 mph - N/A   Clear
10:55 AM 39.9 °F 32.1 °F 26.1 °F 58% 30.05 in 10.0 mi West 13.8 mph - N/A   Overcast
11:55 AM 44.1 °F 38.1 °F 28.0 °F 53% 30.05 in 10.0 mi West 11.5 mph - N/A   Mostly Cloudy
12:55 PM 48.0 °F - 28.0 °F 46% 30.04 in 10.0 mi West 11.5 mph - N/A   Partly Cloudy
1:55 PM 48.0 °F - 28.9 °F 48% 30.03 in 10.0 mi NW 11.5 mph 18.4 mph N/A   Partly Cloudy
2:55 PM 50.0 °F - 28.0 °F 43% 30.03 in 10.0 mi NNW 17.3 mph 23.0 mph N/A   Mostly Cloudy
3:55 PM 53.1 °F - 27.0 °F 37% 30.03 in 10.0 mi NW 21.9 mph 27.6 mph N/A   Partly Cloudy
4:55 PM 53.1 °F - 27.0 °F 37% 30.03 in 10.0 mi NNW 19.6 mph 27.6 mph N/A   Scattered Clouds
5:55 PM 51.1 °F - 28.0 °F 41% 30.04 in 10.0 mi NNW 13.8 mph 24.2 mph N/A   Mostly Cloudy
6:55 PM 51.1 °F - 27.0 °F 39% 30.04 in 10.0 mi NNW 17.3 mph 20.7 mph N/A   Clear
7:55 PM 46.9 °F - 28.0 °F 48% 30.05 in 10.0 mi North 8.1 mph - N/A   Clear
8:55 PM 42.1 °F 38.4 °F 28.0 °F 58% 30.08 in 10.0 mi NNE 5.8 mph - N/A   Clear
9:55 PM 41.0 °F 39.0 °F 28.0 °F 60% 30.10 in 10.0 mi NE 3.5 mph - N/A   Clear
10:55 PM 37.9 °F 33.5 °F 27.0 °F 65% 30.11 in 10.0 mi NE 5.8 mph - N/A   Clear
11:55 PM 35.1 °F 31.0 °F 26.1 °F 70% 30.12 in 10.0 mi ESE 4.6 mph - N/A   Clear